User: anonymous   Login
Location: Lecco
(45.8566°N, 9.3977°E)
Time: 19:42:18
(UTC+02:00)
Language:

Vanguard 3 - Orbit

View from above orbital plane
View from above orbital plane
View from above satellite
View from above satellite

Ground track
Ground track

The orbit data is extracted from the following two-line orbital elements,

1 00020U 59007A   21136.83794267  .00000008  00000-0 -12166-4 0  9991
2 00020  33.3544  74.2408 1666978 235.4096 107.7954 11.55805184269180
Epoch (UTC): 16 May 2021 20:06:38
Eccentricity: 0.1666978
inclination: 33.3544°
perigee height: 507 km
apogee height: 3262 km
right ascension of ascending node: 74.2408°
argument of perigee: 235.4096°
revolutions per day: 11.55805184
mean anomaly at epoch: 107.7954°
orbit number at epoch: 26918

The dashed part of the orbit path shows where the satellite is in the earth's shadow,  

DLR